Location: Tofino
(49.1330°N, 125.9000°W)
Time: 18:41:43
(UTC-07:00)

Envisat - Visible Passes

Search period start: 18 October 2017 00:00
Search period end: 28 October 2017 00:00
Orbit: 764 x 766 km, 98.2° (Epoch: 18 October)

Date Brightness Start Highest point End Pass type
(mag) Time Alt. Az. Time Alt. Az. Time Alt. Az.
18 Oct 4.0 19:52:45 23° E 19:54:15 26° ENE 19:58:26 10° N visible
18 Oct 3.7 21:32:58 51° W 21:33:00 51° W 21:37:58 10° NNW visible
19 Oct 4.7 19:15:46 11° E 19:17:59 15° NE 19:20:42 10° NNE visible
19 Oct 2.8 20:55:59 78° ESE 20:56:14 81° ENE 21:01:21 10° NNW visible
19 Oct 5.5 22:36:12 15° W 22:36:12 15° W 22:38:54 10° NW visible
20 Oct 3.4 20:19:00 39° E 20:19:39 41° ENE 20:24:24 10° N visible
20 Oct 4.6 21:59:13 31° W 21:59:13 31° W 22:03:17 10° NNW visible
21 Oct 4.2 19:42:01 20° E 19:43:15 22° ENE 19:47:07 10° N visible
21 Oct 3.4 21:22:13 61° WNW 21:22:13 61° WNW 21:26:55 10° NNW visible
22 Oct 4.8 19:05:06 10° ENE 19:07:03 12° NE 19:09:00 10° NNE visible
22 Oct 2.9 20:45:15 66° ENE 20:45:15 66° ENE 20:50:12 10° N visible
22 Oct 5.4 22:25:28 19° WNW 22:25:28 19° WNW 22:28:15 10° NW visible
23 Oct 3.6 20:08:16 33° ENE 20:08:37 34° ENE 20:13:09 10° N visible
23 Oct 4.4 21:48:29 35° WNW 21:48:29 35° WNW 21:52:20 10° NNW visible
24 Oct 4.4 19:31:16 18° ENE 19:32:17 19° ENE 19:35:44 10° NNE visible
24 Oct 3.3 21:11:29 63° NW 21:11:29 63° NW 21:15:51 10° NNW visible
24 Oct 5.9 22:51:42 11° WNW 22:51:42 11° WNW 22:52:12 10° WNW visible
25 Oct 4.9 18:55:50 10° NE 18:56:08 10° NE 18:56:25 10° NE visible
25 Oct 3.2 20:34:30 52° NE 20:34:30 52° NE 20:39:02 10° N visible
25 Oct 5.2 22:14:43 21° WNW 22:14:43 21° WNW 22:17:28 10° NW visible
26 Oct 3.9 19:57:30 28° ENE 19:57:36 28° ENE 20:01:54 10° N visible
26 Oct 4.3 21:37:43 38° WNW 21:37:43 38° WNW 21:41:20 10° NNW visible
27 Oct 4.5 19:20:31 15° ENE 19:21:19 16° NE 19:24:16 10° NNE visible
27 Oct 3.4 21:00:44 56° N 21:00:44 56° N 21:04:44 10° NNW visible
27 Oct 5.8 22:40:56 13° WNW 22:40:56 13° WNW 22:42:02 10° NW visible
